Home   Weather   Glyfada   Past weeks

Flag for Greece Past Weather in Glyfada, Greece — Yesterday and Last 2 Weeks

Now
84 °F

Clear.


Feels Like: 82 °F
Forecast: 78 / 93 °F
Wind: 3 mph from North

Location: Eleftherios Venizelos International Airport

Current Time: Aug 19, 2017 at 9:56:23 pm

Latest Report: Aug 19, 2017 at 8:50 pm


Visibility: 10 mi

Pressure: 29.92 "Hg

Humidity: 27%

Dew Point: 46 °F

Location of GlyfadaLocation

Past Weather in Glyfada — Graph

°F

Glyfada Temperature Yesterday

Maximum temperature yesterday: 91 °F (at 1:50 pm)
Minimum temperature yesterday: 81 °F (at 3:50 am)
Average temperature yesterday: 85 °F

High & Low Weather Summary for the Past Weeks

 TemperatureHumidityPressure
High99 °F (Aug 5, 3:50 pm)65% (Aug 14, 11:50 pm)30.01 "Hg (Aug 14, 11:50 pm)
Low72 °F (Aug 14, 1:50 am)17% (Aug 12, 3:50 pm)29.68 "Hg (Aug 13, 2:20 am)
Average86 °F36%29.87 "Hg
* Reported Aug 4 8:20 pm — Aug 19 8:20 pm, Glyfada. Weather by CustomWeather, © 2017

Note: Actual official high and low records may vary slightly from our data, if they occured in-between our weather recording intervals... More about our weather records

Advertising

Glyfada Weather History for the Previous 24 Hours

Scroll right to see more
 ConditionsComfort  
Time TempWeatherWind HumidityBarometerVisibility
8:20 pm
Sat, Aug 19
84 °FClear.7 mph27%29.92 "Hg10 mi
7:50 pm86 °FSunny.10 mph27%29.92 "Hg10 mi
7:20 pm86 °FSunny.14 mph29%29.92 "Hg10 mi
6:50 pm88 °FSunny.15 mph25%29.92 "Hg10 mi
5:50 pm90 °FPassing clouds.17 mph21%29.92 "HgN/A
5:20 pm91 °FPassing clouds.23 mph20%29.92 "HgN/A
4:50 pm91 °FPassing clouds.24 mph20%29.92 "HgN/A
4:20 pm91 °FPassing clouds.22 mph21%29.92 "HgN/A
3:50 pm91 °FPassing clouds.20 mph23%29.92 "HgN/A
3:20 pm91 °FPassing clouds.21 mph24%29.95 "HgN/A
2:50 pm91 °FSunny.24 mph26%29.95 "Hg10 mi
2:20 pm90 °FPassing clouds.23 mph26%29.95 "HgN/A
1:50 pm90 °FPassing clouds.23 mph26%29.95 "HgN/A
1:20 pm90 °FPassing clouds.21 mph26%29.95 "HgN/A
12:50 pm90 °FPassing clouds.22 mph22%29.95 "HgN/A
12:20 pm90 °FPassing clouds.21 mph26%29.95 "HgN/A
11:50 am88 °FSunny.21 mph25%29.95 "Hg10 mi
11:20 am88 °FSunny.22 mph29%29.95 "Hg10 mi
10:50 am88 °FSunny.17 mph25%29.95 "Hg10 mi
10:20 am88 °FSunny.18 mph25%29.95 "Hg10 mi
9:50 am88 °FSunny.16 mph25%29.95 "Hg10 mi
9:20 am86 °FPassing clouds.13 mph24%29.92 "HgN/A
8:50 am86 °FPassing clouds.10 mph24%29.92 "HgN/A
8:20 am84 °FPassing clouds.8 mph25%29.92 "HgN/A
7:50 am82 °FSunny.6 mph26%29.92 "Hg10 mi
7:20 am82 °FPassing clouds.6 mph26%29.92 "HgN/A
6:50 am82 °FSunny.3 mph26%29.89 "Hg10 mi
6:20 am79 °FPassing clouds.9 mph32%29.89 "HgN/A
5:50 am79 °FClear.13 mph32%29.89 "Hg10 mi
5:20 am81 °FClear.9 mph30%29.89 "Hg10 mi
4:50 am81 °FClear.10 mph30%29.89 "Hg10 mi
4:20 am81 °FClear.7 mph30%29.89 "Hg10 mi
3:50 am81 °FClear.7 mph30%29.89 "Hg10 mi
3:20 am81 °FClear.8 mph30%29.92 "Hg10 mi
2:50 am82 °FClear.7 mph28%29.92 "Hg10 mi
2:20 am82 °FClear.6 mph28%29.92 "Hg10 mi
1:50 am81 °FClear.6 mph30%29.92 "Hg10 mi
1:20 am81 °FClear.6 mph32%29.92 "Hg10 mi
12:50 am82 °FPassing clouds.5 mph28%29.95 "HgN/A
12:20 am82 °FClear.6 mph30%29.95 "Hg10 mi
11:50 pm
Fri, Aug 18
81 °FClear.8 mph32%29.95 "Hg10 mi
11:20 pm82 °FClear.9 mph30%29.95 "Hg10 mi
10:50 pm82 °FClear.9 mph30%29.95 "Hg10 mi
10:20 pm84 °FClear.8 mph27%29.92 "Hg10 mi
9:50 pm84 °FClear.8 mph27%29.92 "Hg10 mi
9:20 pm84 °FClear.8 mph27%29.92 "Hg10 mi
Weather by CustomWeather, © 2017

See weather overviewHow to use our weather pages